GW5010 Weather Reports


Display with metric or nautical units.
time (UTC)temp
F
wind
direction
speed
MPH
gust
MPH
rain 1hr
in
rain 24hr
in
rain mn
in
humidity
%
barometer
mb
20260504041741 51 187 0.0 4.0 0.00 0.00 0.00 44 1016.2
20260504041237 51 186 2.0 2.0 0.00 0.00 0.00 42 1016.2
20260504040734 52 192 2.0 3.0 0.00 0.00 0.00 41 1016.1
20260504040231 52 193 2.0 3.0 0.00 0.00 0.00 42 1016.4
20260504035727 52 147 1.0 3.0 0.00 0.00 0.00 43 1016.1
20260504035225 52 191 1.0 3.0 0.00 0.00 0.00 43 1016.3
20260504034722 52 196 0.0 3.0 0.00 0.00 0.00 43 1016.1
20260504034219 52 187 0.0 2.0 0.00 0.00 0.00 42 1016.1
20260504033717 52 198 2.0 4.0 0.00 0.00 0.00 42 1016.0
20260504033214 52 219 1.0 2.0 0.00 0.00 0.00 42 1015.9
20260504032711 52 223 3.0 5.0 0.00 0.00 0.00 41 1016.3
20260504032208 53 199 1.0 4.0 0.00 0.00 0.00 40 1016.2
20260504031705 53 223 3.0 5.0 0.00 0.00 0.00 40 1016.1
20260504031201 53 214 3.0 5.0 0.00 0.00 0.00 40 1016.0
20260504030658 53 249 3.0 5.0 0.00 0.00 0.00 40 1016.1
20260504030155 53 242 3.0 4.0 0.00 0.00 0.00 38 1016.0
20260504025651 53 240 3.0 4.0 0.00 0.00 0.00 38 1015.9
20260504025148 53 229 2.0 4.0 0.00 0.00 0.00 39 1015.9
20260504024645 54 237 2.0 4.0 0.00 0.00 0.00 39 1015.8
20260504024142 53 227 2.0 3.0 0.00 0.00 0.00 39 1015.9
20260504023639 53 218 2.0 4.0 0.00 0.00 0.00 40 1015.9
20260504023135 53 230 3.0 5.0 0.00 0.00 0.00 39 1015.7
20260504022631 53 220 3.0 4.0 0.00 0.00 0.00 39 1015.8
20260504022127 53 252 2.0 4.0 0.00 0.00 0.00 39 1015.9
20260504021625 53 221 2.0 3.0 0.00 0.00 0.00 39 1015.9
20260504021121 53 240 0.0 3.0 0.00 0.00 0.00 39 1015.7
20260504020619 53 219 3.0 4.0 0.00 0.00 0.00 40 1015.8
20260504020115 53 223 2.0 3.0 0.00 0.00 0.00 40 1015.6
20260504015611 53 228 0.0 3.0 0.00 0.00 0.00 40 1015.8
20260504015107 53 212 0.0 2.0 0.00 0.00 0.00 41 1015.7
20260504014604 53 147 0.0 2.0 0.00 0.00 0.00 39 1015.7
20260504014101 54 215 0.0 3.0 0.00 0.00 0.00 39 1015.6
20260504013558 53 219 3.0 4.0 0.00 0.00 0.00 39 1015.6
20260504013055 53 219 1.0 2.0 0.00 0.00 0.00 39 1015.8
20260504012553 54 199 1.0 2.0 0.00 0.00 0.00 38 1015.6
20260504012050 54 202 0.0 2.0 0.00 0.00 0.00 38 1015.5
20260504011547 54 219 1.0 3.0 0.00 0.00 0.00 38 1015.6
20260504011043 54 213 1.0 3.0 0.00 0.00 0.00 39 1015.3
20260504010539 54 224 3.0 3.0 0.00 0.00 0.00 39 1015.5
20260504010035 54 228 1.0 3.0 0.00 0.00 0.00 39 1015.5
20260504005532 54 204 1.0 4.0 0.00 0.00 0.00 39 1015.4
20260504005030 54 218 2.0 3.0 0.00 0.00 0.00 39 1015.5
20260504004527 54 239 3.0 4.0 0.00 0.00 0.00 38 1015.4
20260504004024 54 248 2.0 3.0 0.00 0.00 0.00 38 1015.2
20260504003520 55 216 2.0 4.0 0.00 0.00 0.00 38 1015.4
20260504003017 54 219 2.0 4.0 0.00 0.00 0.00 38 1015.3
20260504002514 54 229 3.0 3.0 0.00 0.00 0.00 39 1015.5
20260504002011 55 271 2.0 4.0 0.00 0.00 0.00 39 1015.3
20260504001509 55 206 2.0 3.0 0.00 0.00 0.00 39 1015.3
20260504001005 55 225 2.0 3.0 0.00 0.00 0.00 38 1015.2
20260504000502 55 212 3.0 4.0 0.00 0.00 0.00 38 1015.1
20260503235959 55 220 2.0 3.0 0.00 0.00 0.00 38 1015.3
20260503235457 55 220 2.0 2.0 0.00 0.00 0.00 38 1015.0
20260503234954 56 228 2.0 3.0 0.00 0.00 0.00 37 1015.4
20260503234452 56 244 3.0 4.0 0.00 0.00 0.00 37 1015.1
20260503233950 57 235 3.0 5.0 0.00 0.00 0.00 37 1015.2
20260503233446 57 252 3.0 5.0 0.00 0.00 0.00 36 1014.9
20260503232942 57 269 0.0 4.0 0.00 0.00 0.00 35 1014.9
20260503232439 57 279 2.0 3.0 0.00 0.00 0.00 37 1014.7
20260503231937 58 259 3.0 5.0 0.00 0.00 0.00 36 1014.9
20260503231434 58 244 3.0 5.0 0.00 0.00 0.00 36 1014.9
20260503230931 58 218 2.0 6.0 0.00 0.00 0.00 35 1014.8
20260503230427 58 240 5.0 7.0 0.00 0.00 0.00 35 1014.8
20260503225925 58 234 5.0 7.0 0.00 0.00 0.00 37 1014.7
20260503225422 59 241 3.0 6.0 0.00 0.00 0.00 36 1014.6
20260503224917 59 282 2.0 6.0 0.00 0.00 0.00 34 1014.8
20260503224414 59 227 4.0 7.0 0.00 0.00 0.00 34 1014.8
20260503223912 59 244 5.0 5.0 0.00 0.00 0.00 32 1014.6
20260503223410 59 240 2.0 7.0 0.00 0.00 0.00 33 1014.7
20260503222910 59 252 6.0 9.0 0.00 0.00 0.00 32 1014.8
20260503222409 59 258 6.0 7.0 0.00 0.00 0.00 34 1014.8
20260503221907 60 253 4.0 6.0 0.00 0.00 0.00 33 1014.6
20260503221405 59 269 4.0 7.0 0.00 0.00 0.00 33 1014.7
20260503220901 59 266 5.0 6.0 0.00 0.00 0.00 33 1014.8
20260503220358 59 253 4.0 9.0 0.00 0.00 0.00 31 1015.0
20260503215855 60 261 5.0 11.0 0.00 0.00 0.00 34 1014.9
20260503215352 60 223 4.0 5.0 0.00 0.00 0.00 31 1014.9
20260503214849 60 323 3.0 6.0 0.00 0.00 0.00 31 1014.7
20260503214347 60 221 4.0 5.0 0.00 0.00 0.00 34 1014.9
20260503213844 60 352 3.0 9.0 0.00 0.00 0.00 34 1014.9
20260503213341 60 243 7.0 9.0 0.00 0.00 0.00 32 1014.7
20260503212838 60 254 3.0 7.0 0.00 0.00 0.00 32 1015.0
20260503212336 61 224 3.0 5.0 0.00 0.00 0.00 34 1014.9
20260503211833 60 241 3.0 9.0 0.00 0.00 0.00 34 1015.0
20260503211330 59 293 2.0 7.0 0.00 0.00 0.00 32 1015.0
20260503210825 59 245 4.0 7.0 0.00 0.00 0.00 34 1015.0
20260503210322 60 298 6.0 14.0 0.00 0.00 0.00 33 1015.0
20260503205817 59 358 3.0 7.0 0.00 0.00 0.00 35 1014.8
20260503205314 61 67 2.0 7.0 0.00 0.00 0.00 35 1014.7
20260503204811 61 228 6.0 7.0 0.00 0.00 0.00 33 1015.0
20260503204309 60 255 5.0 7.0 0.00 0.00 0.00 31 1015.1
20260503203806 60 278 4.0 9.0 0.00 0.00 0.00 30 1014.9
20260503203303 60 247 4.0 10.0 0.00 0.00 0.00 32 1015.3
20260503202800 60 325 5.0 7.0 0.00 0.00 0.00 34 1015.0
20260503202258 60 261 6.0 11.0 0.00 0.00 0.00 32 1015.2
20260503201755 60 251 6.0 11.0 0.00 0.00 0.00 34 1015.0
20260503201252 61 265 4.0 7.0 0.00 0.00 0.00 31 1015.0
20260503200749 60 263 3.0 11.0 0.00 0.00 0.00 31 1015.1
20260503200245 58 292 3.0 9.0 0.00 0.00 0.00 34 1015.2
20260503195743 57 214 3.0 8.0 0.00 0.00 0.00 34 1015.4
20260503195239 58 244 5.0 9.0 0.00 0.00 0.00 32 1015.4
20260503194737 60 212 4.0 9.0 0.00 0.00 0.00 33 1015.6
20260503194232 59 242 3.0 6.0 0.00 0.00 0.00 32 1015.6
20260503193729 59 271 3.0 7.0 0.00 0.00 0.00 33 1015.4
20260503193225 61 271 7.0 9.0 0.00 0.00 0.00 31 1015.6
20260503192721 60 306 3.0 8.0 0.00 0.00 0.00 32 1015.6
20260503192216 60 255 5.0 6.0 0.00 0.00 0.00 33 1015.8
20260503191713 59 239 5.0 7.0 0.00 0.00 0.00 33 1015.9
20260503191210 59 250 7.0 11.0 0.00 0.00 0.00 33 1015.9
20260503190707 60 218 2.0 8.0 0.00 0.00 0.00 31 1015.9
20260503190204 60 288 7.0 13.0 0.00 0.00 0.00 30 1016.0
20260503185701 60 280 4.0 9.0 0.00 0.00 0.00 32 1015.9
20260503185156 59 233 9.0 16.0 0.00 0.00 0.00 33 1016.1
20260503184651 59 286 3.0 9.0 0.00 0.00 0.00 30 1015.8
20260503184148 57 215 5.0 10.0 0.00 0.00 0.00 31 1016.2
20260503183644 59 277 4.0 10.0 0.00 0.00 0.00 31 1016.2
20260503183142 59 258 4.0 10.0 0.00 0.00 0.00 29 1016.3
20260503182640 59 285 6.0 9.0 0.00 0.00 0.00 32 1016.3
20260503182139 59 283 4.0 7.0 0.00 0.00 0.00 35 1016.4
20260503181635 59 247 5.0 11.0 0.00 0.00 0.00 32 1016.4
20260503181131 58 278 5.0 8.0 0.00 0.00 0.00 33 1016.4
20260503180628 58 255 6.0 9.0 0.00 0.00 0.00 32 1016.4
20260503180126 57 313 5.0 17.0 0.00 0.00 0.00 34 1016.5
20260503175623 56 219 7.0 10.0 0.00 0.00 0.00 35 1016.4
20260503175120 57 268 6.0 8.0 0.00 0.00 0.00 35 1016.5
20260503174616 57 236 7.0 9.0 0.00 0.00 0.00 35 1016.4
20260503174114 57 253 4.0 5.0 0.00 0.00 0.00 35 1016.7
20260503173608 57 255 7.0 14.0 0.00 0.00 0.00 37 1016.9
20260503173105 56 241 8.0 13.0 0.00 0.00 0.00 35 1016.8
20260503172602 55 279 6.0 10.0 0.00 0.00 0.00 38 1016.8
20260503172100 56 291 4.0 13.0 0.00 0.00 0.00 37 1016.6
20260503171555 55 254 7.0 9.0 0.00 0.00 0.00 38 1016.7
20260503171053 56 248 4.0 9.0 0.00 0.00 0.00 39 1017.0
20260503170549 55 239 5.0 11.0 0.00 0.00 0.00 37 1017.0
20260503150942 50 323 5.0 8.0 0.00 0.00 0.00 49 1018.0
20260503150439 48 276 8.0 10.0 0.00 0.00 0.00 49 1018.0
20260503131331 44 259 7.0 7.0 0.00 0.00 0.00 62 1018.1
20260503130829 43 235 3.0 8.0 0.00 0.00 0.00 65 1018.0
20260503130327 43 249 5.0 6.0 0.00 0.00 0.00 64 1018.2
20260503110720 36 247 4.0 6.0 0.00 0.00 0.00 79 1017.2
20260503110217 36 245 3.0 6.0 0.00 0.00 0.00 79 1017.5
20260503100144 36 257 5.0 7.0 0.00 0.00 0.00 81 1016.4
20260503081538 38 248 5.0 6.0 0.00 0.00 0.00 79 1015.8
20260503081036 39 253 4.0 7.0 0.00 0.00 0.00 78 1015.8
20260503080532 39 260 4.0 6.0 0.00 0.00 0.00 78 1015.9
20260503072506 41 245 5.0 7.0 0.00 0.00 0.00 74 1015.4
20260503072003 41 252 4.0 7.0 0.00 0.00 0.00 75 1015.3
20260503071500 41 237 4.0 7.0 0.00 0.00 0.00 73 1015.0
20260503070955 41 249 5.0 8.0 0.00 0.00 0.00 74 1014.9
20260503070453 41 249 7.0 7.0 0.00 0.00 0.00 73 1015.1
20260503054906 41 212 3.0 6.0 0.00 0.00 0.00 74 1015.2
20260503054401 41 244 5.0 5.0 0.00 0.00 0.00 76 1014.9
20260503053900 41 240 4.0 7.0 0.00 0.00 0.00 75 1015.2
20260503053357 41 203 2.0 7.0 0.00 0.00 0.00 74 1015.2
20260503052853 41 261 3.0 7.0 0.00 0.00 0.00 73 1015.0
20260503052351 41 274 4.0 7.0 0.00 0.00 0.00 73 1015.0
20260503051847 41 244 4.0 7.0 0.00 0.00 0.00 74 1015.1
20260503051343 41 245 5.0 7.0 0.00 0.00 0.00 75 1015.2
20260503050840 41 240 5.0 7.0 0.00 0.00 0.00 73 1015.1
20260503050336 41 249 5.0 7.0 0.00 0.00 0.00 73 1014.9
20260503045834 41 237 4.0 7.0 0.00 0.00 0.00 72 1015.1
20260503045332 41 251 4.0 7.0 0.00 0.00 0.00 73 1015.1
20260503044828 41 246 3.0 6.0 0.00 0.00 0.00 72 1015.2
20260503044325 41 243 5.0 7.0 0.00 0.00 0.00 73 1015.2
20260503043822 41 247 4.0 6.0 0.00 0.00 0.00 72 1015.1
20260503043319 41 254 5.0 7.0 0.00 0.00 0.00 71 1015.2
20260503042815 41 235 4.0 7.0 0.00 0.00 0.00 73 1015.2
20260503042312 41 241 4.0 6.0 0.00 0.00 0.00 73 1015.0